Alpine, WY

7:26 PM MDT on October 24, 2014 (GMT -0600)
One Mile South of | Change Station
CLOSE
Current Station
Personal Weather Station
Location: Alpine, WY
Elevation: 5650 ft
Nearby Weather Stations

Elev 5650 ft 43.16 °N, 111.03 °W | Updated 7 seconds ago

Clear
Clear
53.1 °F
Feels Like 53.1 °F
N
0.0
Wind Variable Wind from South
Gusts 7.0 mph

Today
High -- | Low -- °F
--% Chance of Precip.
Yesterday
High -- | Low -- °F
Precip. -- in
7:48 AM 6:27 PM
New Moon, 1% visible
Pressure 30.20 in
Visibility 10.0 miles
Clouds Clear
Dew Point 28 °F
Humidity 38%
Rainfall 0.00 in
Snow Depth Not available.
UV 0.0 out of 12
Pollen 2.70 out of 12
Air Quality Not available.
Flu Activity Sporadic
METAR KAFO 250115Z AUTO 15005KT 10SM CLR 11/M03 A3020 RMK AO2

More Conditions Fewer Conditions

Pressure 30.20 in
Visibility 10.0 miles
Clouds Clear
Dew Point 28 °F
Humidity 38%
Rainfall 0.00 in
Snow Depth Not available.
UV 0.0 out of 12
Pollen 2.70 out of 12
Air Quality Not available.
Flu Activity Sporadic
METAR KAFO 250115Z AUTO 15005KT 10SM CLR 11/M03 A3020 RMK AO2

More Conditions Fewer Conditions

10-Day Weather Forecast

Almanac

Astronomy

Oct. 24, 2014 Rise Set
Actual Time 7:48 AM MDT 6:27 PM MDT
Civil Twilight 7:19 AM MDT 6:56 PM MDT
Nautical Twilight 6:46 AM MDT 7:29 PM MDT
Astronomical Twilight 6:13 AM MDT 8:02 PM MDT
Moon 8:32 AM MDT (10/24) 7:08 PM MDT (10/24)
Length of Visible Light 11h 36m
Length of Day
10h 38m
Tomorrow will be 2m 43s shorter.
New Moon, 1% of the Moon is Illuminated
Today
New Moon
Oct 30
First Quarter
Nov 6
Full
Nov 14
Last Quarter
Nov 22
New

Today's Extremes

State Highs State Lows

Community

WunderPhotos

Upload Photos

1,764,741 photos uploaded!

WunderBlogs® & News

Nearby

Snow Depth

Station Depth Elevation
Willow Creek 3 in 8450 ft
Blind Bull Summit 0 in 8900 ft
Phillips Bench 0 in 8200 ft
Granite Creek 0 in 6770 ft
Salt River Summit 0 in 7600 ft

Earthquake Activity

City Distance Mag. Time & Date
No recent earthquake activity has been reported nearby.
Minimum magnitude displayed is 2.5.

Coastal Water Temperatures

Place Temperature
No Stations Reporting

Nearby Weather Stations